SCP
0 0 0 0 0 0 0 0 0 0 0 0 0 0 0 0 0 0 0 0 0 0 0 0 0 0 0 0 0 0 0 0 -0 0 0 0 0 0 0 0 0 0 0 0
0 0 0 0 0 0 0 0 0 0 0 0 0 0 0 0 0 0 0 0 0 0 0 0 0 0 0 0 0 0 0 0 -0 0 0 0 0 0 0 0 0 0 0 0
0 0 0 0 0 0 0 0 0 0 0 0 0 0 0 0 0 0 0 0 0 0 0 0 0 0 0 0 0 0 0 0 0 0 0 0 0 0 0 0 0 0 0 0
0 0 0 0 0 0 0 0 0 0 0 0 0 0 0 0 0 0 0 0 0 0 0 0 0 0 0 0 0 0 0 0 0 0 0 0 0 0 0 0 0 0 0 0
0 0 0 0 0 0 0 0 0 0 0 0 0 0 0 0 0 0 0 0 0 0 0 0 0 0 0 0 0 0 0 0 0 0 0 0 0 0 0 0 0 0 0 0
0 0 0 0 0 0 0 0 0 0 0 0 0 0 0 0 0 0 0 0 0 0 0 0 0 0 0 0 0 0 0 0 0 0 0 0 0 0 0 0 0 0 0 0
0 0 0 0 0 0 0 0 0 0 0 0 0 0 0 0 0 0 0 0 0 0 0 0 0 0 0 0 0 0 0 0 0 0 0 0 0 0 0 0 0 0 0 0
0 0 0 0 0 0 0 0 0 0 0 0 0 0 0 0 0 0 0 0 0 0 0 0 0 0 0 0 0 0 0 0 0 0 0 0 0 0 0 0 0 0 0 0
0 0 0 0 0 0 0 -0 0 0 0 0 0 0 0 0 0 0 0 0 0 0 0 0 0 0 0 0 0 0 0 0 0 0 0 0 0 0 0 0 0 0 0 0
0 0 0 0 0 0 0 0 0 0 0 0 0 0 0 0 0 0 0 0 0 0 0 0 0 0 0 0 0 0 0 0 0 0 0 0 0 0 0 0 0 0 0 0
0 0 0 0 0 0 0 0 0 0 0 0 0 0 0 0 0 0 0 0 0 0 0 0 0 0 0 0 0 0 0 0 0 0 0 0 0 0 0 0 0 0 0 0
0 0 0 0 0 0 0 0 0 0 0 0 0 0 0 0 0 0 0 0 0 0 0 0 0 0 0 0 0 0 0 0 0 0 0 0 0 0 0 0 0 0 0 0
0 0 0 0 0 0 0 0 0 0 0 0 0 0 0 0 0 0 0 0 0 0 0 0 0 0 0 0 0 0 0 0 0 0 0 0 0 0 0 0 0 0 0 0
0 0 0 0 0 0 0 0 0 0 0 0 0 0 0 0 0 0 0 0 0 0 0 0 0 0 0 0 0 0 0 0 0 0 0 0 0 0 0 0 0 0 0 0
0 0 0 0 0 0 0 0 0 0 0 0 0 0 0 0 0 0 0 0 0 0 0 0 0 0 0 0 0 0 0 0 0 0 0 0 0 0 0 0 0 0 0 0
0 0 0 0 0 0 0 0 0 0 0 0 0 0 0 0 0 0 0 0 0 0 0 0 0 0 0 0 0 0 0 0 0 0 0 0 0 0 0 0 0 0 0 0
0 0 0 0 0 0 0 0 0 0 0 0 0 0 0 0 0 0 0 0 0 0 0 0 0 0 0 0 0 0 0 0 0 0 0 0 0 0 0 0 0 0 0 0
0 0 0 0 0 0 0 0 0 0 0 0 0 0 0 0 0 0 0 0 0 0 0 0 0 0 0 0 0 0 0 0 0 0 0 0 0 0 0 0 0 0 0 0
0 0 0 0 0 0 0 0 0 0 0 0 0 0 0 0 0 0 0 0 0 0 0 0 0 0 0 0 0 0 0 0 0 0 0 0 0 0 0 0 0 0 0 0
0 0 0 0 0 0 0 0 0 0 0 0 0 0 0 0 0 0 0 0 0 0 0 0 0 0 0 0 0 0 0 0 0 0 0 0 0 0 0 0 0 0 0 0
0 0 0 0 0 0 0 0 0 0 0 0 0 0 0 0 0 0 0 0 0 0 0 0 0 0 0 0 0 0 0 0 0 0 0 0 0 0 0 0 0 0 0 0
0 0 0 0 0 0 0 0 0 0 0 0 0 0 0 0 0 0 0 0 0 0 0 0 0 0 0 0 0 0 0 0 0 0 0 0 0 0 0 0 0 0 0 0
0 0 0 0 0 0 0 0 0 0 0 0 0 0 0 0 0 0 0 0 0 0 0 0 0 0 0 0 0 0 0 0 0 0 0 0 0 0 0 0 0 0 0 0
0 0 0 0 0 0 0 0 0 0 0 0 0 0 0 0 0 0 0 0 0 0 0 0 0 0 0 0 0 0 0 0 0 0 0 0 0 0 0 0 0 0 0 0
0 0 0 0 0 0 0 0 0 0 0 0 0 0 0 0 0 0 0 0 0 0 0 0 0 0 0 0 0 0 0 0 0 0 0 0 0 0 0 0 0 0 0 0
0 0 0 0 0 0 0 0 0 0 0 0 0 0 0 0 0 0 0 0 0 0 0 0 0 0 0 0 0 0 0 0 0 0 0 0 0 0 0 0 0 0 0 0
Wind_Speed
4 5 4 6 7 8 7 5 3 4 6 7 8 7 9 9 7 7 6 7 8 7 6 6 6 6 5 5 5 4 3 2 2 2 2 2 3 3 3 3 4 4 4 4
3 3 6 7 8 7 5 3 2 2 4 6 5 6 7 9 10 9 9 9 9 7 6 5 5 5 5 5 5 4 3 2 2 1 0 0 1 2 2 3 4 4 4 4
6 4 7 8 7 5 3 5 5 4 1 1 1 3 2 4 5 5 6 8 10 12 11 8 6 5 5 5 5 4 3 2 1 1 1 2 3 3 3 4 4 4 4 3
2 3 5 6 5 6 4 6 5 4 2 3 2 2 4 5 5 6 6 8 10 10 9 8 7 7 6 5 5 5 4 2 1 1 2 1 1 1 2 2 3 4 4 4
3 3 4 4 5 7 7 5 3 2 3 2 1 3 6 3 6 7 7 8 9 10 10 9 8 8 7 6 5 4 4 2 1 1 1 1 0 1 2 2 3 4 4 4
2 2 4 5 3 4 4 5 6 6 5 2 4 5 5 6 9 7 6 7 8 9 9 8 7 6 5 5 4 4 4 2 2 1 1 1 1 0 1 3 3 3 3 3
2 2 1 4 3 2 5 7 5 4 4 6 3 4 7 6 6 8 9 8 8 9 9 8 7 7 6 6 5 4 4 3 3 2 1 2 2 2 1 1 2 2 2 3
3 2 3 3 5 5 4 8 7 4 4 5 2 3 5 2 3 5 7 8 8 8 8 9 9 8 7 7 6 5 5 4 3 3 3 2 2 2 2 2 1 1 2 3
4 3 2 1 2 6 4 3 7 6 2 2 3 2 3 1 2 4 5 7 8 9 9 9 8 7 7 7 7 6 6 4 4 4 3 2 2 2 2 2 1 2 2 2
6 2 1 1 4 3 5 7 5 4 2 2 3 3 5 7 7 6 7 8 8 8 8 8 8 7 7 7 6 5 5 5 4 4 3 2 2 2 2 1 1 2 3 3
4 5 1 1 3 4 2 2 5 4 4 5 2 7 7 11 10 9 9 8 9 9 9 8 7 7 7 6 5 5 4 4 4 4 3 2 2 2 1 1 2 2 2 2
3 6 2 5 5 5 5 5 7 4 3 4 3 8 5 8 8 8 8 8 8 9 8 8 7 6 5 5 5 5 5 4 4 4 3 3 2 1 1 1 2 1 1 2
5 6 3 5 5 1 3 5 6 6 4 4 3 7 3 3 5 6 7 7 7 8 7 6 6 6 6 6 5 5 5 5 4 4 4 3 2 2 2 2 2 1 1 2
6 5 7 8 7 5 5 5 6 7 4 4 6 7 3 5 6 6 7 7 7 8 8 7 7 7 6 6 6 6 5 5 5 5 4 4 4 3 3 3 2 1 1 1
6 4 5 6 6 5 7 8 8 8 9 8 7 6 8 10 10 9 7 7 7 7 7 8 8 7 7 6 6 5 5 5 5 5 5 5 5 4 3 3 3 2 2 2
4 3 1 3 3 4 6 9 10 10 8 8 5 7 8 6 5 5 7 8 8 8 9 9 9 8 8 7 7 6 6 6 5 6 6 5 5 4 4 4 3 3 3 3
4 5 2 4 5 2 6 10 12 9 8 10 11 10 4 5 8 9 8 8 8 8 8 9 9 9 8 8 8 8 8 6 6 6 6 5 5 5 5 4 4 4 4 3
8 6 4 2 2 6 11 7 9 12 11 10 8 8 11 10 9 7 7 8 7 7 7 7 7 7 6 6 6 6 5 5 6 5 5 6 6 6 5 4 5 5 4 4
7 9 5 3 3 8 10 8 7 10 10 10 10 9 9 6 5 1 5 6 7 6 6 6 6 5 5 5 5 4 4 4 4 4 6 6 6 6 5 6 6 5 4 4
4 5 6 4 3 7 10 9 4 6 5 6 11 12 9 9 5 6 5 6 6 5 5 5 4 4 4 3 5 5 3 2 3 5 6 5 5 6 6 7 6 4 4 5
2 2 4 5 5 10 11 7 4 6 10 5 10 11 13 11 9 7 7 6 6 5 5 6 6 4 3 4 5 5 3 1 3 3 3 3 4 5 6 5 4 4 4 4
8 6 6 6 5 11 8 3 7 9 4 3 8 9 11 8 6 8 8 8 7 6 5 6 6 4 2 3 5 5 2 2 1 0 1 2 3 3 3 4 4 4 4 4
8 10 9 11 11 10 6 9 7 5 4 5 7 7 10 10 9 8 8 8 7 6 6 6 7 6 4 4 5 5 2 2 2 3 2 3 3 3 3 3 4 3 3 3
5 2 2 4 9 8 7 6 5 6 6 6 7 10 12 11 10 9 9 7 7 6 6 6 8 8 5 4 5 4 2 3 4 4 3 3 3 4 4 3 2 2 3 3
6 1 0 5 8 7 6 6 6 5 5 6 7 8 12 14 11 10 9 9 7 6 5 7 8 8 6 5 5 4 4 4 5 4 4 4 4 4 4 4 3 3 3 3
6 6 5 7 8 5 9 9 7 7 8 9 10 8 9 12 13 11 10 8 8 8 7 8 8 8 6 6 5 5 4 5 5 4 4 3 3 4 4 4 5 5 5 7
Wind_Direction
168 122 172 191 175 164 168 180 222 236 196 186 222 229 207 202 196 190 184 171 168 167 161 151 145 136 117 100 96 91 85 54 45 31 17 8 353 343 348 348 353 358 359 360
92 184 195 159 152 151 158 160 208 258 203 188 221 236 206 194 198 190 181 171 163 151 148 152 144 133 123 117 107 101 101 89 60 47 343 286 317 317 323 337 348 354 358 355
159 196 161 150 157 148 166 173 188 208 258 283 176 335 214 207 199 189 179 165 157 160 161 161 150 143 137 134 132 127 129 119 92 53 33 18 11 356 354 348 342 341 351 355
172 206 159 154 172 158 195 209 187 177 116 281 166 228 265 204 189 188 179 159 162 162 160 161 156 154 156 160 151 142 143 142 143 96 70 62 40 342 304 305 318 333 349 350
204 181 156 162 194 172 196 203 173 133 122 342 326 150 276 173 194 208 196 174 168 167 165 166 167 166 167 165 158 155 152 163 190 139 116 106 21 292 302 324 345 344 339 343
218 212 171 180 191 169 146 65 42 48 66 319 234 156 242 211 203 197 197 185 172 169 167 166 166 158 161 163 162 162 160 191 219 200 146 161 184 290 344 344 345 339 331 333
351 330 217 146 112 47 83 80 34 3 8 262 241 162 234 229 196 179 180 184 178 170 164 166 165 167 171 172 178 178 177 204 224 223 213 199 198 197 217 274 308 324 327 320
147 267 241 179 158 169 159 131 150 189 223 281 332 209 256 257 174 159 165 171 174 176 175 176 179 178 180 182 184 186 193 212 222 223 234 219 200 196 227 241 247 274 279 282
155 253 300 50 116 133 133 148 167 141 204 267 301 343 338 1 151 159 170 173 184 186 185 184 184 183 182 186 193 195 199 211 219 220 227 224 209 209 233 256 258 272 288 299
143 164 299 6 57 46 143 144 97 114 155 283 301 227 224 215 215 206 195 194 200 194 188 185 184 186 188 193 200 201 199 205 215 214 219 206 214 220 226 233 269 284 302 317
128 134 289 11 201 203 166 142 111 120 155 160 227 256 223 197 201 201 208 206 198 192 190 189 189 190 189 192 196 200 205 209 215 214 212 201 214 225 216 219 256 271 301 320
128 118 191 254 273 198 175 179 145 150 216 169 187 263 267 189 192 190 202 206 200 192 189 188 185 184 188 193 198 201 201 203 214 209 197 202 209 207 206 231 258 271 318 330
127 111 84 350 335 324 202 185 158 139 130 160 180 263 295 191 191 195 193 197 191 185 181 180 180 185 193 197 199 201 202 206 207 194 189 198 206 201 208 221 238 252 317 339
113 121 157 186 213 212 220 215 173 137 163 210 220 241 233 211 211 214 208 199 191 185 180 180 188 197 201 201 201 202 208 206 198 191 191 203 212 208 205 207 214 227 248 296
111 158 205 224 239 210 214 217 194 183 184 187 224 217 222 214 207 206 201 193 188 194 193 192 195 202 205 207 209 206 208 206 196 191 200 211 213 207 200 202 215 229 249 264
117 167 224 281 270 239 239 230 210 207 197 206 220 246 239 210 182 188 192 185 189 199 201 200 199 199 204 208 208 205 210 210 198 199 211 213 206 206 210 214 217 231 255 271
160 159 160 270 293 343 260 223 204 208 206 191 212 226 187 174 191 194 193 188 193 200 199 197 197 200 204 207 203 204 208 203 200 210 217 212 206 212 222 224 217 232 245 253
153 146 149 234 346 244 245 235 198 204 217 198 197 192 180 189 195 192 181 177 189 189 184 190 194 199 206 206 205 207 202 198 204 215 221 216 208 217 225 227 232 238 237 243
155 144 143 157 233 277 287 269 194 189 234 207 187 184 184 154 108 225 200 173 175 176 175 181 183 184 187 192 190 177 188 190 200 221 226 220 210 214 222 230 238 236 233 244
96 114 130 143 190 248 256 267 204 129 253 220 177 172 163 135 149 230 206 162 157 153 155 156 154 144 150 167 149 140 155 167 217 232 229 221 208 210 221 230 234 231 226 240
145 114 150 171 212 261 257 271 122 148 236 219 178 171 164 175 190 188 162 155 152 148 149 140 130 125 145 151 132 125 121 212 249 242 232 226 222 224 230 236 235 234 237 248
182 177 192 160 194 253 253 182 186 211 230 193 181 175 169 173 150 145 152 153 150 143 140 133 119 108 94 114 118 106 71 306 307 358 327 286 274 265 259 249 255 249 241 250
199 194 188 187 211 231 223 208 220 189 188 188 171 169 151 145 152 155 155 152 150 145 137 128 119 103 76 75 98 97 25 360 46 54 19 337 327 317 307 282 275 273 254 248
269 186 158 264 272 268 252 227 204 189 187 181 166 157 152 155 159 157 155 154 149 145 140 130 120 111 93 76 78 79 41 47 68 56 26 8 2 347 338 325 298 281 270 260
235 178 241 271 284 311 295 249 220 195 166 153 156 165 164 157 160 162 161 159 153 143 136 130 126 121 116 95 75 56 45 60 65 52 29 13 4 351 339 333 314 301 276 259
212 189 191 237 248 234 256 254 230 199 189 175 165 166 171 166 164 161 161 157 149 142 133 127 124 122 116 100 78 52 46 65 71 54 28 13 1 352 348 343 338 336 338 344